Location: Fours
(44.3167°N, 6.7000°E)
Time: 19:06:40
(UTC+00:00)

Timation 2 Rocket - Pass Details

Date: 04 June 2022
Orbit: 904 x 1076 km, 70.0° (Epoch: 25 June)

Event Time Altitude Azimuth Distance (km) Brightness Sun altitude
Rises 20:13:34 0° 320° (NW) 3,790 9.4 -9.3°
Reaches altitude 10° 20:16:47 10° 306° (NW) 2,859 8.0 -9.7°
Maximum altitude 20:21:34 21° 260° (W) 2,175 6.3 -10.3°
Drops below altitude 10° 20:26:26 10° 214° (SW) 2,897 6.3 -10.9°
Sets 20:29:44 0° 199° (SSW) 3,855 6.8 -11.3°
